Location: *
(45.9500°N, 9.0833°E)
Time: 00:45:23
(UTC+00:00)

SR - Pass Details

Date: 17 June 2021
Orbit: 577 x 878 km, 66.7° (Epoch: 23 July)

Event Time Altitude Azimuth Distance (km) Brightness Sun altitude
Rises 01:04:01 0° 327° (NNW) 3,328 ? -17.1°
Reaches altitude 10° 01:06:34 10° 329° (NNW) 2,349 ? -16.9°
Maximum altitude 01:11:56 77° 55° (NE) 757 ? -16.5°
Drops below altitude 10° 01:16:49 10° 143° (SE) 2,132 ? -16.1°
Enters shadow 01:18:25 - 144° (SE) 2,761 ? -16.0°
Sets 01:19:01 0° 144° (SE) 2,997 - -16.0°
